Lukas Holes

Chief Scout - Mlada Boleslav
20 Feb 2028
Sunday
Process

Personality

Adaptability (13) Ambition (12) Controversy (14) Loyalty (10) Pressure (3) Professionalism (1) Sportsmanship (11) Temperament (12)

Profile

Coaching Style Democratic
License Continental B
Determination 11
Man Management 6
Motivating 7
Discipline 9
Job Satisfaction
100%
Fatigue
0%
Role Chief Scout
Wage 12.7K p/w
Contract 14.03.2029

Performance

Behaviour Good
Training Effectiveness
29%
Player Development
50%
Injury Prevention
30%
Tactical Implementation
35%

Recent Events

Attended a recruitment meeting now
Attended a recruitment meeting now
Recommended a transfer target now
Recommended a transfer target now
Recommended a transfer target now
Recommended a transfer target 7d ago
Recommended a transfer target 7d ago
Recommended a transfer target 7d ago

Currently Monitoring

119
Player Club Status Ability Confidence Watched Last Observed Latest Vote
Moses Amasi Sigma Olomouc Active 90 / 89 62% 1 14.06.2027 Approve
Razvan Mitrita San Diego Football Club Negotiating 118 / 120 66% 1 01.06.2027 Approve
Shota Shekiladze Akhmat Grozny Negotiating 110 / 110 66% 1 01.06.2027 Approve
Pedro de la Vega FC Dallas Negotiating 133 / 134 66% 1 01.06.2027 Approve
Jack Currie Oxford United Active 132 / 127 40% 5 30.05.2027 -
Stanley Mills Oxford United Active 133 / 134 40% 4 30.05.2027 -
Kasey McAteer Ipswich Town Active 128 / 146 40% 6 27.05.2027 -
Isaac Price West Bromwich Albion Active 137 / 114 40% 3 27.05.2027 -
Kwadwo Baah Watford Active 129 / 121 40% 4 26.05.2027 -
Alex Lowry Wycombe Wanderers Active 108 / 137 40% 1 26.05.2027 -
Max Bird Birmingham Active 136 / 150 40% 4 25.05.2027 -
Othmane Maamma Watford Active 135 / 110 40% 4 23.05.2027 -
David Turnbull Cardiff City Active 129 / 112 40% 4 23.05.2027 -
Welington Southampton Active 126 / 132 40% 3 22.05.2027 -
Sonny Carey Charlton Athletic Active 111 / 125 40% 1 22.05.2027 -
Daniel Kyerewaa Reading Active 115 / 99 40% 4 21.05.2027 -
Tshepang Moremi Orlando Pirates Active 120 / 128 40% 2 21.05.2027 Needs More Info
Ali Ahmed Norwich City Active 138 / 121 40% 5 20.05.2027 -
Ethan Williams Peterborough United Active 103 / 101 40% 5 18.05.2027 -
Williams Manyama SuperSport United Active 107 / 106 40% 5 17.05.2027 -
Harry Clarke Preston Active 130 / 112 40% 4 17.05.2027 -
Ethan Galbraith Swansea City Active 129 / 138 40% 5 16.05.2027 -
Xavier Amaechi Plymouth Argyle Active 106 / 90 40% 2 15.05.2027 -
Ronald Swansea City Active 118 / 120 40% 1 15.05.2027 -
Ollie Tanner Cardiff City Active 111 / 120 40% 4 11.05.2027 -
Isaiah Jones Luton Town Active 133 / 107 40% 6 09.05.2027 -
Kwame Poku Queens Park Rangers Active 109 / 120 40% 4 08.05.2027 -
Tyrese Campbell Sheffield United Active 142 / 134 40% 3 02.05.2027 -
Toby Collyer West Bromwich Albion Active 136 / 136 40% 1 02.05.2027 -
Derensili Sanches Fernandes Huddersfield Town Active 140 / 105 40% 2 29.04.2027 -
Giorgi Chakvetadze Watford Active 127 / 115 40% 1 29.04.2027 -
Richard Koné Queens Park Rangers Active 112 / 137 40% 4 28.04.2027 -
Jack Diamond Stockport County Active 125 / 131 40% 3 26.04.2027 -
Andre Brooks Sheffield United Active 141 / 108 40% 4 24.04.2027 -
Mduduzi Shabalala Kaizer Chiefs Active 116 / 95 40% 5 22.04.2027 -
Scott Twine Bristol City Active 141 / 114 40% 2 14.04.2027 -
Cian Ashford Cardiff City Active 107 / 121 40% 4 13.04.2027 -
Joe Gelhardt Hull City Active 130 / 144 40% 2 13.04.2027 -
Milan van Ewijk Mansfield Town Active 140 / 145 40% 1 12.04.2027 -
Lukáš Červ Viktoria Plzen Active 134 / 135 40% 2 11.04.2027 -
Harrison Burrows Sheffield United Active 129 / 129 40% 1 11.04.2027 -
Josh Tymon Swansea City Active 119 / 116 40% 1 11.04.2027 -
Kristoffer Lund Birmingham Active 114 / 109 40% 1 09.04.2027 -
Zak Swanson Bradford City Active 119 / 133 40% 2 08.04.2027 -
Juan Mosquera Sheffield Wednesday Active 139 / 117 40% 1 08.04.2027 -
Petr Juliš Slovan Liberec Active 119 / 121 40% 2 03.04.2027 -
Florentino Luís Ipswich Town Active 138 / 126 40% 3 03.04.2027 -
Mikey Johnston West Bromwich Albion Active 113 / 110 40% 1 01.04.2027 -
Phoenix Patterson Stevenage Active 113 / 112 40% 1 01.04.2027 -
Zeidane Inoussa Swansea City Active 113 / 127 40% 1 27.03.2027 -
Tyler Goodrham Oxford United Active 121 / 131 40% 1 25.03.2027 -
Tomáš Rigo Stoke City Active 134 / 139 40% 1 21.03.2027 -
James Morris Leyton Orient Active 99 / 113 40% 2 16.03.2027 -
Bienvenue Kanakimana Zbrojovka Brno Active 118 / 112 40% 3 14.03.2027 -
Jack McGlynn Stoke City Active 128 / 116 40% 1 13.03.2027 -
Kellen Fisher Norwich City Active 118 / 132 40% 1 09.03.2027 -
Pelle Mattsson Norwich City Active 138 / 117 40% 1 06.03.2027 -
Callum Doyle Wrexham Active 128 / 141 40% 1 06.03.2027 -
Oswin Appollis Orlando Pirates Active 116 / 111 40% 1 19.02.2027 -
Matyáš Kozák Teplice Active 102 / 96 40% 6 16.02.2027 -
Finn Azaz Southampton Active 130 / 112 40% 1 16.02.2027 -
Romano Schmid Frosinone Active 145 / 158 40% 1 14.02.2027 -
Mathias Jørgensen Blackburn Rovers Active 134 / 101 40% 3 12.02.2027 -
Ilyas Ansah Hull City Active 146 / 143 40% 1 09.02.2027 -
José Martínes CSKA 1948 Active 100 / 114 40% 4 07.02.2027 -
Shea Charles Southampton Active 119 / 150 40% 1 06.02.2027 -
Petar Stanić Ludogorets Active 136 / 134 40% 1 06.02.2027 -
Patrik Wålemark Lech Active 125 / 129 40% 1 02.02.2027 -
Themba Ngcobo SuperSport United Negotiating 116 / 116 66% 1 01.01.2027 Approve
Iwan Morgan Grimsby Town Active 110 / 129 40% 1 31.12.2026 -
Ammar Ramadan DAC Dunajska Streda Active 124 / 125 40% 4 30.12.2026 -
Ebrima Singhateh Jablonec Active 121 / 118 40% 2 25.12.2026 -
Mojmír Chytil NK Maribor Active 142 / 141 40% 3 24.12.2026 -
Lorent Tolaj Plymouth Argyle Active 121 / 139 40% 1 23.12.2026 -
Tomáš Zlatohlávek Teplice Active 100 / 99 40% 1 23.12.2026 -
Aune Heggebø West Bromwich Albion Active 130 / 112 40% 1 22.12.2026 -
Yousef Salech Cardiff City Active 128 / 147 40% 1 22.12.2026 -
Eren Aydın Zira Active 121 / 120 40% 1 21.12.2026 -
Martin Sekulić Ural Active 117 / 100 40% 1 20.12.2026 -
Lukáš Mašek Slovan Liberec Active 112 / 125 40% 2 19.12.2026 -
Tomás González Piast Active 124 / 128 40% 3 17.12.2026 -
Suleiman Camara Slovan Bratislava Active 127 / 105 40% 1 17.12.2026 -
Pablo Rodríguez Lech Active 122 / 117 40% 2 16.12.2026 -
Jacques Siwe Rubin Active 108 / 116 40% 1 14.12.2026 -
Václav Drchal Bohemians 1905 Active 99 / 93 40% 2 13.12.2026 -
Nicolás Cordero Aldosivi Active 127 / 121 40% 1 11.12.2026 -
Karel Spáčil Viktoria Plzen Active 133 / 117 40% 1 10.12.2026 -
Wessam Abou Ali Columbus Crew Active 129 / 129 40% 3 07.12.2026 -
Rashid Rashid Sparta Prague Active 127 / 145 40% 2 07.12.2026 -
Alan Lescano Argentinos Juniors Active 125 / 117 40% 1 07.12.2026 -
Albert Rusnak FK Senica Active 85 / 98 40% 1 04.12.2026 -
Rafael Navarro St. Louis CITY SC Active 133 / 145 40% 2 03.12.2026 -
Brayan León Mamelodi Sundowns Active 112 / 131 40% 1 03.12.2026 -
Ruben van Bommel Ferencvaros Active 131 / 141 40% 1 29.11.2026 -
Vyacheslav Grulev Nizhniy Novgorod Active 120 / 116 40% 1 27.11.2026 -
Etiosa Ighodaro Kaizer Chiefs Active 121 / 131 40% 3 26.11.2026 -
Seedy Jatta Sturm Graz Active 134 / 142 40% 1 26.11.2026 -
Tenton Yenne Baltika Active 99 / 95 40% 1 22.11.2026 -
Matěj Mikulenka Sigma Olomouc Active 111 / 128 40% 2 21.11.2026 -
Alexander Díaz Deportivo Riestra Active 133 / 97 40% 1 21.11.2026 -
Merchas Doski Viktoria Plzen Active 134 / 123 40% 1 21.11.2026 -
Michal Černák Dukla Prague Active 105 / 108 30% 1 / 1m 18.11.2026 -
Baboucarr Faal Viktoria Plzen Active 93 / 119 40% 1 13.11.2026 -
Agustín Módica Gimnasia y Esgrima Active 120 / 140 40% 1 13.11.2026 -
Kwame Opoku Asante Kotoko Active 84 / 98 40% 1 11.11.2026 -
Mandla Erasmus SuperSport United Active 123 / 139 40% 1 08.11.2026 -
Kévin Denkey FC Cincinnati Active 111 / 135 40% 1 05.11.2026 -
Elias Achouri San Diego Football Club Active 119 / 118 40% 1 02.11.2026 -
Cheikh Sabaly Vancouver Whitecaps Active 119 / 130 40% 2 30.10.2026 -
Dejan Joveljić Seattle Sounders Active 133 / 135 40% 1 29.10.2026 -
Jeong Sang-Bin St. Louis CITY SC Active 99 / 101 40% 1 27.10.2026 -
Peter Christiansen Viking Active 115 / 123 40% 2 26.10.2026 -
Raimonds Krollis Slovan Liberec Active 103 / 123 40% 1 26.10.2026 -
Agustín Anello Philadelphia Union Active 109 / 112 40% 1 24.10.2026 -
Denzel Jubitana Neftchi Active 110 / 138 40% 1 15.10.2026 -
Ibrahim Aliyu Houston Dynamo Active 101 / 139 40% 2 10.10.2026 -
Jakub Kadák Dukla Prague Active 106 / 107 40% 1 07.10.2026 -
Josh Sargent Toronto FC Active 119 / 113 40% 1 06.10.2026 -
Tomás Chancalay Minnesota United FC Active 118 / 107 40% 1 05.10.2026 -